Regional Weather Roundup
Issued by NWS

Home | Current Version | Previous Version | Text Only | Print | Product List | Glossary On
Versions: 1 2 3 4 5 6 7 8 9 10 11 12 13 14 15 16 17 18 19 20 21 22 23 24 25 26 27 28 29 30 31 32 33 34 35 36 37 38 39 40 41 42 43 44 45 46 47 48 49 50
000
ASPQ40 PGUM 252112
RWRPQ
WEATHER ROUNDUP FOR THE MARIANAS AND MICRONESIA
NATIONAL WEATHER SERVICE TIYAN GU
700 AM CHST WED NOV 26 2014

GUZ001>004-252200-
MARIANA ISLANDS-

CITY           SKY/WX    TMP DP  RH WIND       PRES   REMARKS
GUAM AIRPORT   CLEAR     81  73  78 E6        29.87R
ANDERSEN AFB   PTCLDY    79  73  83 E12       29.87R
ROTA AIRPORT   PTCLDY    77  73  88 E7        29.87R
TINIAN AP      PTCLDY    81  75  83 E5        29.85R
SAIPAN AP      PTCLDY    81  75  83 E8        29.87R

$$

PMZ161-252200-
REPUBLIC OF PALAU-

CITY           SKY/WX    TMP DP  RH WIND       PRES   REMARKS
KOROR AP       MOCLDY    77  75  94 CALM      29.76R
KOROR WSO      CLOUDY    81  75  83 S6        29.76R

$$

PMZ171>174-252200-
FEDERATED STATES OF MICRONESIA-

CITY           SKY/WX    TMP DP  RH WIND       PRES   REMARKS
YAP AIRPORT    MOCLDY    82  77  83 E8        29.77R HX  91
CHUUK AP       PTSUNNY   84  77  79 NE12      29.72R HX  94
POHNPEI AP     NOT AVBL
POHNPEI WSO    CLOUDY    82  75  78 E9        29.78R
KOSRAE AP      NOT AVBL

$$

PMZ181-252200-
REPUBLIC OF THE MARSHALL ISLANDS-

CITY           SKY/WX    TMP DP  RH WIND       PRES   REMARKS
KWAJALEIN AP   SUNNY     82  75  78 NE21      29.76R
MAJURO AP      NOT AVBL
MAJURO WSO     LGT RAIN  81  77  89 E15       29.77R

$$




USA.gov is the U.S. government's official web portal to all federal, state and local government web resources and services.